Wind_Speed
40 39 39 40 40 40 40 40 40 40 40 40 40 40 41 41 40 40 41 41 41 41 41 40 41 41 40 39 39 40 40 40 41 41 41 41 42 42
40 40 40 40 40 41 42 42 41 41 40 39 40 40 40 40 40 40 40 40 40 41 41 41 41 40 40 40 40 40 40 40 40 41 41 43 44 44
41 41 41 42 42 42 42 42 42 41 40 39 40 40 40 40 39 40 40 40 40 40 40 40 40 40 40 40 39 40 41 41 41 42 42 43 43 44
41 41 42 43 43 43 43 43 43 42 41 40 39 39 39 39 39 39 39 40 40 39 40 40 40 40 40 40 40 40 41 41 41 42 42 42 43 44
40 41 41 42 42 43 43 43 43 42 42 41 40 40 40 39 39 39 39 39 39 39 39 40 40 40 40 40 40 41 42 42 42 42 42 43 44 44
38 39 39 40 40 41 42 42 42 42 41 41 41 41 41 41 40 40 39 40 40 39 40 40 40 39 39 40 41 41 42 42 42 43 44 45 45 44
37 38 38 39 39 39 40 40 41 41 42 42 42 41 41 41 40 40 40 40 40 40 39 40 40 40 40 40 41 41 42 42 43 44 45 45 45 45
37 37 37 38 38 38 38 39 39 40 40 41 41 41 41 41 40 40 40 40 40 40 40 40 41 41 41 41 41 42 43 43 44 44 45 45 44 44
37 37 37 37 37 37 37 38 38 38 39 40 40 40 41 41 41 40 41 40 39 40 40 40 41 41 41 42 42 43 43 43 43 44 44 44 43 42
37 37 37 37 37 38 38 38 38 39 39 40 39 39 39 40 40 40 40 39 40 40 40 40 40 40 41 41 42 43 44 44 44 44 44 43 42 41
38 38 38 37 38 38 38 38 39 40 40 40 39 40 40 40 39 39 39 39 40 40 39 39 40 41 41 41 42 43 43 44 43 43 43 41 40 39
38 38 38 38 39 39 40 40 40 40 41 41 41 42 41 41 41 40 40 40 40 39 39 40 40 41 40 40 41 42 42 42 42 42 40 39 38 37
39 39 39 40 40 41 41 40 40 40 40 41 41 42 42 41 41 40 41 41 40 40 40 40 40 41 41 40 40 41 41 41 41 40 38 38 36 36
40 40 40 41 41 41 41 41 41 41 41 41 41 41 41 41 40 40 40 40 40 40 40 40 40 40 40 40 39 39 39 39 39 38 37 37 35 34
41 42 41 41 41 41 41 41 40 40 40 40 40 40 40 40 40 39 39 39 39 39 39 39 39 39 39 38 37 37 38 38 38 38 37 36 36 35
41 41 41 41 41 41 41 41 40 40 40 40 40 39 39 39 38 38 38 38 38 37 37 37 37 37 37 36 36 36 36 36 37 37 36 36 35 33
41 41 41 41 41 41 41 41 40 40 39 39 38 38 38 38 37 37 37 37 37 37 36 36 36 36 36 35 35 35 35 35 35 34 33 32 30 29
41 40 40 40 40 40 40 40 40 39 38 37 37 37 36 36 36 36 36 36 35 35 35 35 35 34 34 34 34 34 33 33 33 32 31 30 29 29
41 40 39 39 39 39 39 39 38 37 37 36 36 35 34 34 34 34 34 34 34 34 34 34 33 33 32 32 33 33 33 33 32 31 30 29 29 29
39 39 38 38 37 37 37 36 36 35 35 34 33 33 32 33 33 33 33 34 34 33 33 33 33 32 32 32 32 32 33 32 31 30 29 28 28 27
38 38 38 37 36 35 34 34 34 33 32 32 32 31 32 32 32 33 33 33 33 33 32 32 32 32 33 33 32 31 32 31 30 30 29 27 26 25
35 35 35 35 34 33 32 32 31 31 31 30 30 30 30 31 31 31 31 32 32 32 32 32 32 33 33 32 31 31 30 30 29 29 28 26 25 24
33 33 33 33 32 32 31 31 30 29 28 28 29 29 30 30 30 30 31 31 31 31 31 31 32 32 32 31 30 30 29 28 28 27 26 25 24 23
Wind_Direction
264 262 263 264 264 265 267 269 271 272 273 274 276 277 277 276 278 278 277 276 276 278 278 278 281 282 282 282 282 282 283 283 284 285 284 283 285 285
263 262 263 264 264 266 268 270 272 274 275 275 276 277 277 277 278 278 278 277 277 278 278 279 280 281 281 282 281 282 283 283 284 286 285 286 286 285
263 264 264 264 266 267 268 269 271 273 275 275 276 277 277 277 278 279 278 277 277 277 277 278 280 280 281 282 282 282 282 284 286 287 287 287 288 288
264 265 265 264 265 266 267 269 271 272 274 275 275 276 276 277 279 279 279 279 279 279 278 279 280 279 280 281 282 283 284 286 287 288 288 288 288 289
266 265 265 266 266 266 268 270 271 272 273 273 275 275 276 277 278 278 279 280 280 279 279 281 280 279 280 281 282 284 285 286 287 288 289 290 290 290
267 266 266 266 267 268 268 269 270 271 272 273 274 274 275 276 277 278 278 279 280 280 280 280 280 279 281 282 283 284 286 286 287 288 288 289 290 291
267 266 266 266 268 268 269 269 269 270 271 272 273 274 274 275 276 277 277 278 280 281 281 280 279 280 280 282 284 285 286 286 287 288 289 289 290 290
267 266 267 268 268 268 268 269 270 270 270 272 273 274 274 275 275 275 276 277 278 279 280 280 280 280 281 283 284 286 288 288 288 288 289 290 289 288
267 267 268 268 267 268 268 269 269 270 271 271 273 274 274 275 275 275 276 277 277 278 279 280 281 282 283 284 286 288 289 289 290 290 291 290 289 289
268 268 268 268 268 269 269 268 269 270 271 271 273 274 274 275 274 275 276 276 277 277 278 280 282 283 285 286 288 289 290 290 291 292 292 291 290 290
268 268 268 268 269 269 270 270 270 271 271 272 272 273 274 274 275 276 276 277 277 278 279 280 281 283 285 286 288 289 289 291 292 293 293 291 290 290
268 268 268 268 269 270 271 271 271 271 272 272 272 273 274 275 275 276 276 277 278 278 280 281 282 284 285 287 288 289 290 291 292 293 292 290 290 288
267 267 268 269 269 270 270 271 271 271 272 272 272 273 275 276 276 276 277 278 278 279 280 281 283 285 286 287 288 290 290 290 291 292 291 290 290 289
266 267 268 269 269 269 270 271 271 272 272 273 273 274 275 275 276 276 277 278 279 278 280 282 283 285 286 288 289 289 290 290 291 292 290 290 289 289
266 267 268 268 268 269 270 270 271 271 272 273 274 274 274 275 276 276 277 278 278 279 281 283 284 286 287 289 289 289 290 291 292 292 290 290 289 289
266 266 267 267 267 268 269 269 270 270 271 272 273 274 274 275 275 275 276 277 278 280 282 283 285 287 288 290 290 289 290 291 293 294 291 290 289 288
265 265 265 266 267 268 268 269 270 270 271 272 272 273 273 274 274 275 276 278 279 280 282 284 286 287 289 291 291 291 291 292 294 294 293 290 288 287
264 265 266 266 267 267 268 268 268 269 270 270 271 272 272 272 274 275 277 278 280 282 283 284 285 287 289 292 292 292 293 293 294 294 292 290 287 286
264 264 265 266 266 266 267 267 268 269 269 270 271 271 272 273 275 276 277 278 280 281 283 284 286 287 289 291 291 292 294 294 294 294 292 289 286 285
263 263 264 265 266 265 266 267 267 269 269 270 271 271 273 274 275 276 277 278 279 281 283 284 285 288 290 292 293 293 294 295 294 293 291 289 286 283
262 262 262 264 265 265 266 266 267 268 269 270 271 272 274 275 276 277 277 278 279 280 282 283 285 287 290 292 293 293 293 294 294 293 292 289 285 281
261 260 260 261 263 263 263 264 266 267 267 268 269 272 273 275 276 276 276 276 277 278 281 283 285 287 290 291 292 292 291 292 294 294 292 290 285 279
258 259 259 261 261 261 262 264 265 265 265 267 270 272 273 274 275 275 276 276 277 278 281 283 285 287 290 290 291 292 291 291 292 293 292 289 285 281
Height
5702 5702 5703 5704 5704 5704 5704 5704 5704 5704 5704 5702 5700 5699 5697 5696 5695 5694 5692 5691 5690 5689 5688 5687 5685 5683 5681 5679 5677 5675 5673 5671 5668 5665 5663 5660 5658 5655
5692 5693 5694 5694 5694 5694 5694 5694 5694 5693 5693 5693 5691 5689 5687 5686 5685 5683 5682 5681 5680 5679 5677 5676 5675 5673 5671 5669 5667 5664 5662 5659 5657 5654 5652 5649 5646 5643
5682 5683 5683 5683 5684 5684 5683 5684 5683 5683 5683 5682 5680 5679 5677 5676 5674 5673 5672 5670 5670 5668 5667 5665 5664 5662 5661 5658 5656 5654 5651 5649 5646 5643 5640 5637 5633 5630
5671 5672 5672 5672 5672 5672 5672 5673 5672 5672 5672 5671 5670 5669 5668 5666 5665 5663 5662 5660 5659 5658 5656 5655 5654 5652 5650 5648 5645 5643 5640 5638 5635 5632 5629 5626 5622 5617
5661 5661 5661 5661 5661 5661 5661 5661 5661 5661 5660 5660 5660 5659 5658 5656 5655 5653 5652 5650 5649 5648 5646 5645 5643 5641 5639 5637 5635 5632 5629 5627 5623 5620 5617 5613 5609 5605
5651 5650 5650 5650 5650 5650 5650 5650 5649 5649 5649 5649 5649 5648 5647 5646 5645 5643 5642 5640 5639 5637 5635 5634 5632 5630 5628 5626 5623 5621 5618 5615 5611 5608 5605 5601 5597 5593
5640 5640 5640 5639 5639 5638 5638 5638 5638 5638 5638 5638 5638 5637 5637 5636 5635 5633 5632 5630 5629 5627 5625 5623 5621 5619 5617 5614 5612 5609 5606 5602 5599 5596 5592 5588 5584 5579
5630 5630 5629 5629 5628 5628 5628 5628 5627 5627 5627 5627 5627 5626 5625 5624 5623 5622 5621 5620 5619 5617 5614 5612 5610 5608 5606 5603 5600 5597 5593 5590 5586 5582 5579 5575 5570 5566
5620 5619 5619 5618 5618 5618 5617 5617 5617 5616 5616 5616 5616 5615 5614 5613 5612 5611 5610 5608 5607 5605 5603 5602 5599 5597 5594 5591 5589 5585 5581 5577 5573 5570 5566 5561 5557 5553
5609 5608 5608 5608 5607 5607 5606 5606 5606 5606 5605 5605 5605 5604 5603 5602 5601 5600 5598 5597 5596 5594 5592 5591 5588 5586 5583 5580 5576 5573 5569 5565 5561 5557 5553 5549 5545 5541
5598 5597 5597 5597 5596 5596 5596 5596 5595 5595 5594 5593 5593 5592 5591 5590 5589 5588 5587 5586 5585 5583 5580 5579 5577 5575 5572 5569 5565 5561 5557 5553 5548 5544 5540 5536 5532 5529
5586 5586 5586 5586 5585 5585 5585 5584 5584 5583 5582 5582 5582 5581 5580 5579 5578 5577 5575 5574 5572 5572 5569 5567 5565 5562 5561 5558 5554 5549 5545 5540 5536 5532 5528 5524 5521 5517
5575 5575 5574 5574 5574 5573 5573 5573 5572 5571 5571 5570 5569 5569 5568 5567 5566 5564 5563 5562 5560 5559 5557 5555 5553 5550 5548 5547 5543 5538 5533 5529 5525 5520 5516 5513 5509 5506
5563 5563 5562 5562 5561 5561 5561 5561 5560 5559 5559 5558 5558 5557 5556 5555 5554 5553 5551 5550 5548 5547 5545 5543 5541 5539 5536 5533 5531 5527 5522 5517 5513 5509 5505 5502 5498 5495
5550 5550 5550 5549 5549 5549 5548 5548 5547 5547 5547 5546 5546 5545 5544 5543 5542 5541 5540 5538 5536 5534 5533 5530 5529 5526 5524 5521 5518 5515 5511 5506 5502 5498 5494 5491 5488 5485
5537 5537 5537 5536 5536 5536 5536 5535 5535 5535 5535 5534 5534 5533 5532 5532 5531 5529 5528 5527 5526 5524 5521 5519 5516 5514 5512 5509 5506 5503 5499 5495 5491 5487 5483 5480 5477 5474
5523 5524 5523 5523 5523 5523 5523 5523 5523 5523 5523 5522 5522 5521 5521 5520 5519 5518 5517 5515 5514 5513 5511 5508 5505 5503 5501 5498 5495 5492 5488 5485 5481 5476 5473 5470 5467 5465
5510 5510 5510 5510 5511 5511 5511 5511 5511 5511 5510 5510 5510 5510 5509 5508 5508 5507 5506 5505 5503 5502 5500 5497 5495 5493 5491 5488 5485 5481 5478 5475 5471 5467 5463 5461 5459 5456
5497 5497 5498 5498 5498 5498 5498 5498 5498 5498 5499 5499 5498 5498 5498 5497 5497 5496 5495 5494 5493 5491 5489 5486 5484 5483 5481 5478 5475 5471 5468 5465 5462 5458 5455 5452 5450 5448
5484 5484 5485 5485 5485 5486 5486 5486 5487 5487 5487 5487 5487 5487 5487 5487 5486 5485 5484 5483 5482 5481 5479 5476 5474 5472 5470 5468 5465 5462 5458 5455 5452 5449 5447 5444 5441 5439
5471 5472 5472 5473 5474 5474 5474 5475 5476 5476 5476 5477 5477 5477 5477 5476 5475 5475 5474 5473 5472 5470 5469 5467 5464 5462 5460 5458 5455 5453 5449 5446 5443 5441 5438 5436 5434 5432
5459 5460 5461 5462 5462 5463 5464 5465 5465 5466 5466 5467 5467 5466 5466 5466 5465 5464 5463 5463 5461 5460 5459 5457 5455 5453 5451 5448 5446 5443 5440 5437 5434 5431 5429 5427 5425 5424
5447 5449 5450 5451 5452 5453 5454 5455 5455 5456 5456 5457 5457 5457 5456 5456 5455 5454 5453 5453 5452 5450 5449 5447 5445 5443 5441 5438 5436 5434 5431 5429 5426 5424 5422 5419 5417 5416